Vertical_Velocity
-1 -1 -0 -1 -1 -1 -0 -0 0 0 1 -0 -1 -1 -1 -1 -1 -1 -1 -1 -2 -2 -2 -3 -3 -3 -3 -3 -3 -3 -4 -4 -3 -3 -3 -3 -2 -2 -2 -2 -1 -1 -1 -1 -1 -1 -1 -1 -1 -0 0 0 0 -0 -0 -1 -1 -0 -0 -0 -1 -1 -1 -1 -1 -0 0 1 0 0 -0 -1 -1 -1 -0 -0 -0 -0 -0 -0 0 1 1 0 -0 -0 -0 0 0 1 0 -0 -0 -0 -0 -0 -1 -1 -1 -1 -1 -1 -0
0 -0 -0 -1 -1 -1 -1 -1 -1 -0 -0 -1 -1 -2 -2 -3 -3 -3 -3 -3 -3 -3 -3 -4 -4 -4 -4 -4 -4 -4 -4 -4 -3 -3 -3 -2 -2 -2 -1 -1 -1 -1 -1 -0 -0 -0 0 0 0 1 1 2 2 2 2 1 1 1 2 2 1 1 1 0 0 1 1 2 2 2 1 1 1 1 1 1 1 1 1 1 1 1 1 1 0 -0 -0 -0 0 1 1 1 1 1 1 1 0 0 0 0 0 0 0
1 0 -0 -1 -1 -1 -1 -1 -1 -1 -0 -1 -1 -2 -2 -3 -3 -3 -3 -3 -3 -4 -4 -4 -4 -4 -4 -4 -3 -3 -3 -3 -3 -2 -2 -1 -1 -0 -0 -0 0 0 1 1 1 1 2 2 2 2 2 3 3 4 4 3 3 3 3 3 3 3 2 2 2 2 2 3 3 3 3 2 2 2 2 2 2 2 2 2 2 1 1 1 1 0 -0 -0 -0 0 1 1 1 1 1 1 1 1 1 1 1 1 1
0 0 -0 -1 -1 -1 -1 -1 -0 -0 0 -0 -1 -1 -1 -2 -2 -2 -3 -3 -3 -3 -3 -3 -3 -3 -3 -3 -2 -2 -2 -1 -1 -1 -0 0 1 1 2 2 2 2 2 2 3 3 3 3 3 3 3 3 4 4 4 4 4 4 4 4 4 4 3 3 3 3 3 3 3 3 3 3 2 2 2 2 2 2 2 2 2 2 2 1 1 0 -0 -0 -1 -0 0 1 1 1 1 1 1 1 1 1 1 1 1
-0 0 0 -0 -1 -1 -1 -1 -1 -1 -0 -0 -0 -1 -1 -1 -1 -1 -1 -1 -1 -1 -1 -1 -1 -1 -1 -1 -0 -0 0 1 1 2 2 2 3 3 3 3 3 3 3 3 3 3 3 3 3 3 3 3 3 3 3 4 4 4 3 3 3 3 3 3 3 3 2 2 2 2 2 2 2 1 1 1 1 1 1 1 1 2 2 1 1 0 0 -0 -1 -1 -1 -1 -0 0 0 0 0 0 0 0 0 0 0
-1 -0 -0 -0 -1 -1 -2 -2 -2 -1 -1 -1 -1 -1 -1 -0 -0 0 0 0 1 1 1 1 1 1 1 1 2 2 2 3 3 3 3 3 3 3 3 3 3 3 2 2 2 2 2 2 2 2 2 2 1 1 1 2 2 2 2 2 1 1 1 0 0 1 1 1 1 0 0 0 0 0 -0 -0 -1 -1 -1 -1 -1 -0 0 1 1 0 0 -0 -1 -1 -2 -1 -1 -1 -1 -1 -1 -1 -1 -1 -1 -0 -0
-1 -1 -1 -0 -1 -1 -1 -2 -2 -2 -2 -1 -1 -1 -1 -1 -1 -0 1 1 1 2 2 2 2 2 3 3 3 3 4 4 4 3 3 3 2 2 2 2 1 1 1 1 1 1 1 1 1 1 1 1 0 -0 -0 -0 -0 0 0 1 0 0 -0 -1 -1 -1 -1 -1 -1 -1 -2 -2 -1 -1 -1 -1 -1 -2 -2 -2 -2 -2 -2 -1 -0 -0 -0 -0 -1 -1 -1 -2 -2 -2 -2 -2 -2 -2 -1 -1 -1 -1 -1
-1 -1 -1 -1 -1 -1 -1 -2 -2 -2 -2 -1 -1 -1 -1 -1 -1 -0 0 1 1 1 2 2 2 3 3 3 3 3 3 3 2 2 2 1 1 0 0 0 0 0 0 0 0 0 0 0 -0 -0 -0 -0 -1 -1 -1 -1 -1 -1 -1 -1 -0 0 0 -0 -0 -1 -1 -1 -1 -1 -1 -1 -1 -2 -1 -1 -1 -1 -1 -2 -2 -2 -2 -2 -1 -1 -1 -0 -1 -1 -1 -2 -2 -2 -2 -2 -2 -2 -2 -2 -1 -1 -1
-1 -1 -1 -1 -1 -1 -1 -1 -1 -1 -1 -1 -1 -1 -1 -1 -0 -0 0 0 1 1 1 1 2 1 1 1 1 1 1 1 1 1 0 0 -0 -0 -0 -0 -0 -0 -0 -0 -0 -0 0 0 -0 -0 -1 -1 -1 -1 -1 -2 -2 -1 -1 -1 -0 -0 0 0 0 0 -0 -0 -0 -0 -0 -1 -1 -1 -1 -1 -1 -1 -1 -1 -2 -2 -2 -2 -2 -1 -1 -0 -0 -0 -0 -1 -1 -1 -2 -2 -2 -2 -2 -2 -2 -1 -1
-1 -1 -1 -1 -1 -1 -1 -1 -1 -1 -1 -1 -1 -1 -1 -0 -0 -0 0 0 0 0 0 0 0 0 -0 -0 -0 -0 -0 -0 -0 -0 -0 -0 -0 -0 -0 -0 -0 -0 -0 -0 -0 -0 0 0 0 -0 -0 -0 -1 -1 -1 -1 -1 -1 -1 -1 -0 -0 0 0 0 0 -0 -0 -0 -0 -0 -0 -0 -0 -1 -1 -0 -0 -1 -1 -1 -2 -2 -2 -2 -2 -1 -1 -0 -0 -0 -0 -1 -1 -1 -1 -1 -2 -2 -2 -2 -2 -2
-0 0 0 -0 -0 -0 -0 -1 -1 -1 -0 -0 -0 -1 -1 -0 -0 -0 -0 -0 -1 -1 -1 -1 -1 -1 -1 -1 -1 -1 -1 -1 -0 -0 -0 0 0 0 0 0 -0 -0 -0 -0 -0 -0 0 0 0 0 0 0 0 -0 -0 -1 -1 -1 -1 -1 -0 -0 0 0 -0 -0 -1 -1 -1 -1 -1 -1 -1 -1 -1 -0 -0 -0 0 0 -0 -1 -1 -2 -2 -2 -2 -1 -1 -1 -0 -0 -0 -0 -1 -1 -1 -1 -1 -2 -2 -2 -2
0 1 1 1 1 1 1 0 0 0 -0 -0 -0 -0 -1 -1 -1 -1 -1 -1 -1 -1 -1 -1 -1 -1 -1 -1 -1 -1 -1 -1 -0 -0 0 0 1 1 1 1 1 0 0 0 0 0 1 1 1 0 1 1 1 0 -0 -0 -1 -1 -1 -1 -1 -0 -0 -0 -0 -1 -1 -1 -2 -2 -2 -2 -1 -1 -1 -0 -0 0 1 1 1 1 0 -1 -1 -2 -2 -2 -2 -1 -1 -1 -0 -0 -0 -0 -1 -1 -1 -1 -1 -2 -2
-0 0 0 0 1 1 1 1 1 0 0 -0 -0 -0 -0 -1 -1 -1 -1 -1 -1 -1 -1 -1 -1 -1 -1 -1 -1 -1 -1 -1 -0 -0 0 1 1 1 1 1 1 1 1 1 1 1 1 1 1 1 1 1 1 1 0 -0 -1 -2 -2 -1 -1 -1 -1 -1 -0 -0 -1 -1 -1 -1 -1 -1 -1 -1 -0 -0 -0 -0 0 1 1 1 1 1 -0 -1 -2 -2 -2 -2 -1 -1 -0 -0 0 -0 -0 -1 -1 -1 -1 -1 -1
-0 -0 -0 -0 -0 0 0 0 0 0 0 -0 -0 -0 -0 -0 -0 -0 -0 -0 -0 -0 -0 -0 -0 -0 -0 -0 -0 -0 -0 0 0 0 1 1 1 1 1 1 1 1 1 1 1 1 2 1 1 1 1 1 1 1 -0 -0 -1 -2 -2 -1 -1 -1 -1 -1 -0 -0 -0 -0 -0 -0 -0 -0 -0 -0 -0 -0 -0 -0 -0 0 1 1 1 1 1 1 -0 -1 -1 -1 -1 -1 -1 -0 0 0 -0 -0 -1 -1 -0 -0 -0
-0 -1 -1 -1 -0 -0 -0 -0 -0 -0 -0 -0 0 0 0 0 -0 -0 -0 -0 -0 -0 -0 0 0 0 1 1 1 0 0 1 1 1 1 1 1 1 1 1 1 1 1 1 1 1 1 1 1 1 0 0 0 -0 -1 -1 -1 -2 -2 -2 -1 -1 -1 -1 -0 -0 -0 -0 -0 0 0 0 0 0 -0 -0 -0 -0 -0 -0 0 1 1 1 1 1 1 1 0 -0 -1 -1 -1 -0 -0 0 0 0 -0 -0 -0 0 0
-0 -0 -0 -1 -1 -1 -1 -1 -1 -1 -0 -0 0 0 0 -0 -0 -0 -0 -0 0 0 0 0 0 1 1 1 1 1 1 1 1 1 1 1 1 1 1 0 0 0 0 0 0 1 1 1 1 0 -0 -0 -0 -1 -1 -1 -2 -2 -2 -2 -2 -1 -1 -1 -0 -0 -0 0 0 0 0 0 0 0 0 0 -0 -0 -0 -0 0 0 1 1 1 1 1 1 1 1 1 0 -0 -0 -0 -0 0 0 0 0 0 1 1
0 0 0 -0 -0 -0 -1 -1 -1 -1 -1 -0 -0 -0 -0 -0 -0 -0 -0 -0 -0 0 0 0 0 1 1 1 1 0 0 0 0 0 0 0 0 0 -0 -0 -0 -1 -0 -0 -0 0 0 1 1 0 0 -0 -0 -0 -0 -1 -1 -2 -2 -2 -1 -1 -1 -0 -0 0 0 1 1 1 1 1 1 1 1 1 0 0 -0 -0 0 0 0 0 1 1 1 1 2 2 2 1 1 1 0 0 0 0 0 0 0 1 1
1 0 1 1 0 0 0 -0 -0 -0 -0 -0 0 -0 -0 -1 -1 -1 -0 -0 -0 -0 -0 0 0 0 0 0 0 0 -0 -0 -1 -1 -1 -1 -1 -0 -1 -1 -1 -1 -1 -0 -0 0 1 1 1 1 1 1 1 1 1 1 -0 -1 -1 -1 -1 -1 -0 -0 0 0 1 1 1 1 2 1 1 1 1 1 1 1 1 0 0 0 0 0 0 0 1 1 1 2 2 2 2 1 1 1 0 0 0 0 0 0 1
1 1 1 1 1 1 1 1 1 1 1 1 1 1 0 -0 -0 -0 -0 -0 -0 0 -0 -0 -0 -0 -0 -0 -0 -1 -1 -1 -1 -2 -2 -2 -1 -1 -1 -1 -1 -1 -0 -0 0 1 1 2 2 2 2 2 2 2 2 1 1 0 -0 0 0 0 0 0 0 0 0 1 1 1 2 2 2 1 1 1 1 1 1 1 1 1 1 1 0 0 1 1 1 1 2 2 2 1 1 1 1 1 1 0 0 0 0
1 1 1 1 1 1 1 1 1 2 2 2 2 2 1 1 1 0 1 0 1 1 0 0 -0 -0 -0 -1 -1 -1 -1 -1 -1 -2 -2 -2 -2 -1 -1 -1 -0 -0 -0 -0 0 1 1 2 2 2 2 2 2 1 2 1 1 0 0 0 0 0 0 -0 -0 -0 -0 0 1 1 1 1 1 1 1 1 1 1 1 1 1 1 1 1 1 1 1 1 1 1 1 1 1 1 1 1 1 1 1 1 1 0 0
-0 -0 -0 0 0 1 1 1 1 2 2 3 3 3 2 2 2 2 2 2 2 2 1 1 1 0 -0 -0 -1 -1 -1 -0 -1 -1 -1 -1 -1 -1 -1 -0 -0 -0 -0 -0 0 0 0 1 1 1 1 1 1 1 0 0 -0 -0 -0 -0 -0 -0 -0 -1 -1 -1 -1 -0 0 1 1 1 1 1 1 1 1 1 1 1 1 1 1 1 1 1 1 1 1 1 1 1 1 1 1 1 1 1 1 1 1 1 1
-0 -0 -0 -0 -0 0 1 1 1 1 1 2 2 2 2 3 2 2 2 2 2 2 2 2 2 1 1 1 0 0 0 0 0 0 -0 -0 -0 -0 -0 -0 0 1 0 1 1 1 1 1 1 1 1 0 0 -0 -0 -1 -1 -1 -1 -1 -1 -1 -1 -1 -1 -1 -1 -0 0 1 1 1 1 1 1 1 1 1 1 1 1 1 1 1 1 1 1 1 1 1 1 1 1 1 1 1 1 1 1 1 1 1 1
0 1 0 0 0 1 1 1 1 1 1 1 1 1 1 1 2 1 1 2 2 1 1 2 1 1 1 1 1 0 0 1 1 1 0 0 0 0 0 0 1 1 1 2 2 2 2 2 2 1 1 0 0 -0 -0 -1 -1 -1 -1 -1 -1 -1 -1 -1 -1 -1 -1 -0 0 0 1 1 1 1 1 1 1 1 1 1 1 1 1 0 0 1 1 0 0 1 1 1 1 1 1 1 1 1 1 1 1 1 2
0 0 1 1 1 1 1 1 1 1 0 -0 -0 -0 -0 0 0 0 -0 0 0 0 0 0 0 0 0 0 0 -0 0 0 0 1 1 1 1 1 1 1 1 2 2 2 2 2 3 3 3 3 2 2 1 1 1 1 0 -0 -0 -0 -1 -1 -1 -1 -1 -1 -1 -0 -0 -0 0 1 1 1 1 1 1 1 1 1 1 1 0 0 1 1 1 -0 -0 0 1 1 1 1 2 1 1 1 1 1 1 1 2
-1 -1 -0 0 1 1 1 2 2 1 0 -0 -0 -0 -0 -0 -0 -0 -0 -0 -0 -0 -0 -0 -1 -1 -1 -1 -1 -1 -0 -0 -0 0 1 1 1 1 1 1 1 2 2 2 2 2 2 3 3 3 3 2 2 2 2 2 2 1 1 1 1 0 0 -0 -0 -1 -1 -1 -1 -1 -1 -0 -0 0 0 1 1 1 1 1 0 -0 -0 -0 0 0 1 0 0 0 1 1 1 1 2 1 1 2 2 2 2 2 1
-1 -1 -1 -1 -0 1 1 2 1 1 0 -0 -0 0 0 -0 -0 -0 -0 -0 -0 -0 -0 -1 -1 -1 -1 -1 -1 -1 -0 -0 -0 -0 0 1 1 1 1 1 1 2 2 1 1 1 1 2 2 2 2 2 2 2 2 2 2 2 1 1 1 1 1 0 0 -0 -0 -1 -1 -1 -2 -1 -1 -1 -0 0 1 1 2 1 -0 -1 -1 -0 -0 0 0 0 0 1 1 1 1 1 2 2 2 2 2 2 2 2 1
0 -0 -1 -1 -1 -0 0 1 1 0 -0 -1 -0 0 1 0 0 0 0 0 0 0 -0 -0 -1 -1 -1 -1 -1 -1 -1 -0 -0 -0 0 0 1 1 1 1 1 1 2 1 1 1 1 2 2 2 2 2 2 2 2 2 1 1 1 1 1 1 0 0 0 0 0 -0 -1 -1 -2 -2 -1 -1 -0 0 1 2 2 1 0 -0 -0 0 1 0 -0 1 2 2 2 2 2 1 1 1 1 1 2 2 1 1 1
1 1 -0 -0 -0 -0 0 0 0 0 -0 -1 -1 -0 1 1 0 -0 1 0 0 0 0 -0 -0 -0 -0 -0 -0 -0 -0 -0 -0 -0 0 0 1 1 1 1 1 1 2 2 2 1 1 2 2 2 2 2 2 2 2 2 1 1 1 0 0 0 0 0 1 1 1 0 -0 -0 -1 -1 -1 -1 -0 1 1 2 2 2 1 1 1 1 1 0 -0 1 2 3 3 2 3 3 2 1 2 2 2 1 0 -0 0
1 1 1 0 0 -0 -0 -0 0 0 -0 -0 -0 -1 -0 1 1 0 0 0 0 0 1 1 1 1 1 0 0 0 0 0 0 0 0 0 1 1 1 1 1 1 1 2 2 2 2 2 2 2 2 2 2 2 2 2 2 1 1 1 0 0 0 1 1 1 1 1 1 -0 -1 -1 -1 -1 -1 0 1 2 3 2 2 2 2 2 1 0 0 0 1 1 1 1 2 2 2 2 2 2 2 1 0 -1 -0
-0 -0 1 0 0 0 0 -0 0 0 -0 0 0 -0 -0 1 1 1 0 0 0 0 0 1 1 1 1 1 1 1 1 1 1 1 0 0 1 1 1 1 1 1 1 1 2 2 2 2 2 2 2 1 1 1 1 2 2 2 1 1 1 1 1 1 2 2 1 1 1 0 -0 -1 -1 -1 -1 -1 0 1 2 2 2 2 3 2 1 1 0 0 0 0 0 0 0 1 2 3 3 2 2 1 -0 -1 -1
-1 -1 -0 -0 -0 0 0 0 -0 -0 -0 0 1 0 0 1 1 1 1 1 0 0 1 1 1 1 1 1 1 1 2 2 2 2 1 1 1 1 1 1 1 1 1 1 1 2 2 2 1 1 1 1 1 1 1 1 2 2 2 2 2 2 2 2 2 2 1 1 1 0 -0 -1 -1 -1 -1 -1 -1 0 1 2 3 3 3 4 3 3 2 2 0 -0 0 1 1 2 4 3 3 2 1 1 -0 -1 -1
-2 -2 -1 -1 -1 -0 0 0 -0 -1 -1 0 0 0 0 1 1 1 0 1 1 1 1 1 1 1 1 1 1 2 2 3 2 2 2 1 1 1 0 1 1 1 1 1 1 1 2 2 1 1 0 0 -0 -0 0 1 1 2 2 2 2 2 2 2 2 1 1 1 1 0 -0 -0 -1 -1 -1 -1 -1 -1 -0 1 1 2 3 3 4 5 5 5 4 3 2 1 1 2 2 2 1 1 0 -0 -0 -0 -0
-2 -2 -2 -1 -1 -1 -0 0 -0 -1 -1 -0 -0 0 -0 0 0 0 -0 -0 0 1 1 1 1 1 1 1 1 1 2 2 3 2 2 2 1 1 0 0 0 0 1 1 1 1 1 1 1 1 0 0 -0 -0 -0 0 1 2 2 2 2 2 2 2 2 1 1 1 1 1 1 0 -0 -1 -1 -1 -1 -1 -1 -1 -0 1 1 2 2 3 3 4 5 6 5 4 3 1 1 -1 -2 -2 -2 -0 1 3 3
-2 -2 -2 -1 -1 -1 -0 -0 -1 -1 -1 -1 -1 -0 -1 -1 -1 -0 -0 -0 0 1 1 0 0 0 1 1 1 1 1 1 2 2 2 2 2 1 1 1 0 1 1 1 1 1 1 1 1 0 0 -0 -0 -0 -0 0 1 1 2 2 2 2 2 2 2 2 2 2 2 2 1 1 0 -0 -0 -1 -1 -1 -1 -1 -1 -1 -2 -0 0 0 1 2 4 4 3 4 4 4 2 -1 -3 -3 -1 2 4 5 5
-1 -1 -1 -1 -1 -1 -1 -1 -1 -1 -2 -1 -1 -1 -1 -1 -1 -1 -0 0 1 1 1 1 0 0 0 0 -0 -0 -0 0 1 1 2 1 1 1 1 1 1 1 1 1 1 1 0 0 -0 -0 -0 -0 -0 -0 0 1 1 1 2 2 2 2 2 1 2 2 2 2 2 2 2 1 1 1 0 -0 -0 -1 -1 -0 -0 -1 -3 -1 -1 -1 -1 1 1 0 -1 2 4 4 2 1 1 1 2 3 3 2 2
-1 -1 -2 -1 -1 -1 -2 -2 -2 -2 -2 -1 -1 -1 -1 -1 -1 -0 0 1 1 1 1 1 1 0 -0 -0 -1 -1 -1 -0 0 0 1 1 1 1 1 1 1 1 2 1 1 1 0 -0 -1 -1 -1 -0 -0 0 1 1 1 1 1 1 1 1 1 1 2 2 2 2 2 2 2 1 1 1 1 0 0 -0 -0 0 0 0 -1 -1 -1 -2 -1 0 -0 -2 -1 2 3 2 0 2 4 4 3 2 0 -1 -2
-1 -1 -2 -2 -2 -2 -3 -3 -3 -2 -2 -1 -1 -0 -1 -1 -0 0 0 1 1 1 1 1 1 0 -0 -0 -1 -1 -1 -0 0 0 0 1 1 1 1 1 1 1 2 1 1 1 1 -0 -1 -1 -0 -0 0 1 1 1 1 1 1 1 1 1 1 1 2 2 2 2 2 2 2 1 1 1 1 1 1 1 0 0 1 1 1 0 -0 -1 -1 -0 -1 -1 0 1 -2 -4 -4 -0 2 2 1 -0 -2 -3 -4
-0 -1 -2 -2 -2 -2 -3 -3 -3 -3 -2 -1 -0 0 0 0 0 1 1 0 0 1 1 1 -0 -1 -1 -1 -1 -1 -1 0 1 1 1 1 1 1 1 1 1 1 1 1 1 1 0 -0 -1 -0 -0 0 1 1 1 1 1 1 0 0 0 0 1 1 1 2 2 2 2 2 2 1 1 1 2 2 1 1 1 1 1 1 1 1 0 -1 -1 -0 -1 -2 -1 -3 -6 -7 -5 -1 0 -0 -2 -3 -3 -3 -2
-0 -0 -1 -1 -1 -1 -2 -2 -2 -2 -2 -1 -1 -0 1 1 1 0 1 -0 -1 -0 1 0 -1 -2 -2 -2 -2 -2 -1 0 1 1 1 1 1 1 1 1 1 1 1 1 1 0 -0 -1 -1 -0 0 1 1 2 2 1 1 0 0 0 0 1 1 1 1 1 1 1 1 1 1 1 1 1 2 2 2 2 1 1 1 1 1 2 1 1 0 1 1 1 1 -5 -8 -9 -4 -2 -0 -1 -5 -5 -4 -2 -1
0 0 -0 -0 -1 -1 -1 -1 -1 -1 -1 -1 -1 -0 1 1 1 0 -0 -1 -2 -2 -1 -0 -1 -2 -3 -3 -2 -2 -2 -1 0 1 1 1 1 1 1 1 1 1 1 1 1 0 -0 -0 -0 0 1 1 2 2 2 1 1 0 1 1 1 1 1 0 0 0 0 0 0 1 1 1 0 0 1 1 1 1 1 1 1 1 1 1 2 2 2 2 4 5 5 -0 -5 -7 -5 -2 -2 -5 -10 -8 -5 -3 -4
0 0 0 -0 -0 -0 -0 -1 -1 -1 -1 -1 -1 -1 -0 1 1 0 -1 -1 -2 -3 -2 -1 -1 -1 -2 -3 -2 -2 -2 -1 -0 0 -0 0 0 1 1 1 1 1 1 1 1 0 -0 -0 0 1 1 2 2 2 1 0 0 1 1 1 1 0 -0 -0 -0 -0 -0 -0 -0 0 0 0 0 0 -0 -0 0 0 1 1 1 1 1 1 1 1 1 1 2 4 6 5 2 -1 -2 0 -1 -4 -9 -7 -6 -5 -7
0 0 -0 -0 -1 -1 -0 -1 -1 -1 -1 -1 -1 -1 -1 -0 -0 -0 -0 -1 -2 -3 -3 -2 -1 -1 -2 -2 -2 -1 -1 -1 -1 -0 0 -0 0 0 1 1 1 1 1 1 0 -0 -0 -0 0 1 2 2 2 1 0 0 0 0 1 0 -0 -0 -1 -1 -1 -1 -1 -1 -0 -0 0 1 1 0 0 -0 -0 -0 -0 0 0 0 0 0 0 0 0 0 1 2 3 5 5 4 3 3 4 3 -0 -2 -4 -5 -7
0 -0 -0 -0 -1 -1 -1 -1 -1 -1 -1 -1 -1 -2 -2 -1 -1 -1 -0 -0 -1 -1 -2 -2 -1 -1 -1 -1 -2 -1 -0 -0 -0 0 0 0 0 0 0 0 0 0 0 0 -0 -0 -1 -0 0 1 2 2 1 0 -0 0 0 -0 -0 -0 -1 -1 -1 -1 -1 -1 -1 -1 -1 -0 0 1 1 1 0 0 -0 -0 -0 -0 -0 -0 0 0 0 0 0 0 0 1 1 2 3 4 4 4 5 6 5 3 -0 -3 -4
0 0 -0 -0 -0 -1 -1 -1 -1 -1 -1 -1 -2 -2 -2 -2 -2 -1 -1 -0 0 -0 -1 -1 -1 -1 -1 -1 -1 -1 0 1 1 1 1 1 1 1 0 0 0 0 0 -0 -1 -1 -1 -1 0 1 1 1 1 0 -0 0 -0 -1 -1 -1 -1 -1 -1 -1 -1 -1 -1 -1 -1 -1 -0 0 0 1 0 0 -0 -0 -0 0 0 0 0 0 0 0 0 0 0 0 1 1 1 2 2 3 4 5 7 6 3 -0 -3
0 0 0 0 0 -0 -0 -0 -1 -1 -1 -1 -2 -2 -2 -2 -2 -1 -1 -1 0 1 -0 -1 -1 -0 -0 -1 -1 -1 0 1 2 2 1 1 1 1 1 0 0 0 0 -0 -1 -2 -1 -1 -0 0 0 -0 -0 -0 0 -0 -0 -1 -1 -1 -1 -1 -1 -1 -1 -1 -1 -1 -1 -1 -1 -1 -0 -0 0 0 0 -0 -0 -0 -0 -0 -0 -0 -0 0 0 0 0 0 0 0 0 0 1 1 2 4 5 6 6 4 0
0 0 0 0 0 0 0 -0 -0 -1 -1 -2 -2 -2 -2 -2 -1 -1 -1 -1 -1 0 1 -0 -1 -1 -1 -1 -1 -0 -0 1 2 2 2 1 1 1 1 0 0 0 0 -1 -2 -2 -2 -2 -1 -0 -0 -1 -1 -1 -0 -0 -0 -0 -0 -1 -1 -1 -1 -2 -1 -1 -1 -1 -1 -1 -1 -1 -1 -1 -0 0 0 0 1 0 0 0 -0 -0 -0 -0 -0 0 0 -0 -0 -1 -1 -1 -1 -1 -0 1 2 3 5 5 5
0 0 0 0 0 0 -0 -0 -0 -1 -1 -1 -2 -2 -2 -2 -1 -1 -1 -1 -1 -1 0 1 0 -1 -2 -2 -1 -1 -0 0 1 2 1 1 1 1 0 -0 -0 -0 0 -1 -2 -3 -2 -2 -2 -1 -1 -1 -1 -1 -1 -1 -0 -0 0 -0 -0 -0 -1 -1 -1 -1 -1 -1 -1 -1 -1 -1 -1 -1 -1 -0 0 0 1 1 1 0 0 -0 -1 -1 -0 -0 -1 -1 -1 -2 -2 -3 -3 -3 -3 -2 -2 -1 1 3 4
-0 0 0 -0 -0 -0 -1 -1 -1 -1 -1 -1 -1 -1 -1 -1 -1 -0 -0 0 -0 -0 -0 1 1 0 -1 -2 -2 -2 -1 -0 0 1 1 0 -0 -0 -0 -0 -1 -2 -1 -1 -2 -3 -3 -2 -2 -2 -2 -1 -1 -1 -1 -1 -1 -0 -0 0 0 -0 -1 -1 -2 -2 -1 -1 -1 -1 -2 -2 -1 -1 -1 -1 -1 -1 -1 -1 -0 -0 -1 -1 -2 -2 -2 -2 -2 -2 -3 -3 -3 -4 -4 -5 -5 -5 -5 -4 -2 -0 1
-1 -1 -1 -1 -1 -1 -2 -2 -1 -1 -1 -1 -1 -1 -1 -0 -0 -0 -0 1 1 1 -0 1 1 1 0 -2 -3 -3 -2 -1 -0 0 1 1 0 -0 -0 1 0 -1 -2 -1 -1 -2 -2 -1 -1 -1 -2 -1 -1 -1 -1 -1 -1 -1 -1 -0 -0 -1 -1 -1 -2 -3 -2 -2 -3 -3 -4 -4 -4 -3 -3 -3 -3 -3 -3 -3 -3 -3 -2 -3 -3 -3 -3 -4 -4 -4 -4 -4 -5 -5 -6 -7 -7 -7 -6 -5 -4 -3 -1
-1 -1 -2 -2 -2 -2 -2 -2 -2 -2 -2 -1 -1 -1 -1 -0 -0 -0 -0 0 1 1 0 -1 -0 1 1 -2 -4 -4 -3 -2 -0 1 -1 -0 1 2 1 2 3 2 1 -0 -0 -0 -0 0 0 -0 -1 -1 -1 -1 -2 -1 -1 -2 -2 -1 -1 -1 -2 -2 -2 -2 -2 -2 -3 -4 -4 -4 -4 -4 -4 -4 -4 -4 -4 -4 -4 -4 -3 -3 -3 -3 -3 -3 -3 -4 -4 -5 -6 -6 -7 -8 -8 -8 -6 -5 -4 -4 -4
-1 -1 -2 -2 -2 -2 -2 -2 -2 -2 -2 -2 -1 -1 -1 -1 -1 -0 0 -0 -0 0 1 -1 -2 -2 1 -1 -4 -5 -4 -4 -1 1 1 -3 -1 2 3 3 4 5 4 3 1 -0 1 1 1 1 -0 -1 -1 -1 -1 -1 -1 -1 -2 -1 -1 -1 -1 -1 -1 0 1 0 -0 -1 -1 -2 -2 -2 -2 -2 -2 -2 -2 -2 -2 -2 -2 -2 -2 -1 -1 -1 -1 -2 -3 -3 -4 -5 -7 -8 -8 -7 -5 -4 -4 -4 -4
-2 -2 -2 -2 -2 -2 -2 -2 -1 -1 -1 -2 -2 -2 -1 -1 -1 -1 -0 -0 -1 -1 0 0 -2 -3 -3 -2 -3 -5 -5 -5 -4 -1 3 -2 -3 -1 2 3 3 2 5 8 5 1 2 1 1 3 4 0 -0 0 0 0 0 0 -0 0 0 0 0 1 1 2 3 3 3 3 2 2 2 1 1 1 1 1 0 -0 -0 -1 -1 -0 -0 -0 -0 0 0 0 -0 -1 -2 -4 -6 -7 -7 -5 -3 -3 -3 -3 -3
-1 -1 -1 -1 -2 -2 -1 -1 -1 -1 -0 -1 -1 -2 -2 -1 -1 -2 -2 -1 -1 -2 -2 -0 0 -1 -4 -4 -4 -5 -7 -5 -5 -4 -1 0 -1 -3 -4 3 2 -1 0 9 6 2 5 6 4 3 5 4 3 2 2 3 2 2 2 2 2 1 2 2 2 3 4 3 3 3 4 4 3 3 3 2 2 2 1 1 1 0 -0 -0 -0 0 0 1 1 1 1 0 -1 -2 -5 -6 -5 -3 -2 -1 -1 -1 -1
-0 -0 -1 -1 -1 -1 -1 -1 -1 -1 -0 -0 -1 -1 -2 -2 -2 -2 -2 -2 -2 -2 -2 -2 -0 2 0 -3 -3 -3 -6 -6 -5 -5 -6 -3 0 1 -6 -3 0 1 -2 7 6 2 -3 8 12 9 2 6 6 5 4 5 4 2 4 3 2 1 2 2 2 3 3 2 2 3 3 3 3 3 4 3 2 2 2 2 1 1 0 -0 -0 -0 0 1 1 1 1 1 0 -1 -4 -5 -4 -2 -1 -0 0 0 1
-0 -0 -0 -1 -1 -1 -1 -1 -1 -1 -1 -0 -1 -1 -2 -2 -2 -3 -2 -2 -2 -2 -2 -3 -2 1 4 1 -1 -2 -3 -6 -6 -4 -6 -9 -4 1 0 -6 -5 -3 -3 2 5 5 -4 2 10 14 7 8 8 6 5 5 4 3 3 2 2 1 1 1 2 3 2 2 2 2 2 2 2 3 4 3 2 2 2 2 1 1 1 0 -0 -0 0 1 1 1 1 1 1 -1 -3 -5 -4 -1 0 0 1 1 2
-0 -1 -1 -1 -1 -1 -2 -1 -1 -1 -1 -1 -1 -1 -2 -2 -3 -3 -2 -2 -2 -1 -1 -1 -2 -1 2 3 1 -1 -2 -5 -6 -5 -2 -9 -10 -7 -1 -1 -4 -6 -7 -7 -4 -1 0 4 6 7 5 15 14 9 2 6 7 5 2 1 1 1 1 1 2 3 2 2 2 2 2 2 2 2 3 3 3 2 3 2 1 1 1 0 -0 -0 -0 0 0 0 0 1 0 -0 -2 -4 -3 -2 -0 0 1 1 2
-0 -1 -1 -1 -1 -2 -2 -2 -2 -2 -1 -1 -1 -1 -2 -2 -2 -2 -2 -2 -2 -1 -0 0 -1 -2 -2 2 3 1 -1 -3 -6 -6 -2 -4 -9 -11 -9 -5 -3 -2 -0 -6 -8 -9 -12 -1 7 7 -6 10 19 18 5 4 6 7 6 2 1 2 2 2 2 3 2 2 2 2 2 3 3 2 1 3 3 3 2 2 1 1 1 0 -0 -0 -0 -0 -0 -0 -0 -0 -0 -1 -3 -4 -4 -3 -2 -1 -1 -0 0
-1 -1 -1 -1 -2 -2 -2 -2 -2 -2 -2 -2 -2 -2 -2 -2 -2 -2 -2 -2 -2 -2 -1 -1 -1 -2 -3 -1 1 2 1 -1 -3 -4 -5 -3 -4 -7 -9 -10 -10 -8 -5 -6 -5 -5 -11 -12 -6 -1 -1 2 10 19 22 10 4 4 6 6 4 3 3 3 3 3 3 3 3 3 2 3 3 2 1 2 2 2 2 2 2 1 0 -0 -1 -1 -1 -1 -1 -1 -1 -1 -1 -2 -4 -5 -5 -5 -4 -3 -3 -2 -2
-1 -1 -2 -2 -2 -2 -2 -2 -2 -2 -2 -2 -2 -2 -2 -2 -2 -2 -2 -2 -2 -2 -2 -2 -2 -2 -2 -3 -1 1 0 -1 -1 -0 -1 -4 -5 -5 -3 -7 -9 -10 -11 -13 -12 -9 -7 -9 -15 -17 -8 -4 -1 5 21 20 13 5 3 4 5 5 5 4 4 3 3 3 3 3 2 2 3 3 2 2 2 2 2 2 2 1 0 -1 -1 -1 -2 -2 -2 -2 -2 -2 -2 -3 -5 -6 -6 -6 -6 -5 -5 -4 -4
-2 -2 -2 -2 -2 -2 -2 -2 -2 -2 -2 -2 -2 -2 -2 -2 -2 -2 -2 -3 -3 -3 -2 -3 -3 -3 -3 -2 -1 -0 1 -1 -3 -1 3 1 -4 -6 -1 -2 -5 -7 -6 -9 -12 -13 -11 -11 -12 -15 -17 -13 -9 -4 3 13 16 14 8 5 3 2 4 5 5 4 4 3 4 4 3 2 3 3 3 3 2 2 2 2 2 2 1 -1 -1 -1 -2 -2 -2 -2 -1 -2 -2 -3 -4 -5 -6 -6 -6 -5 -5 -5 -5
-2 -2 -2 -2 -2 -2 -2 -2 -2 -2 -2 -2 -2 -2 -2 -2 -2 -3 -3 -4 -4 -4 -3 -3 -3 -4 -4 -3 -2 -1 -0 0 -2 -4 -0 3 -0 -4 -3 -1 -2 -4 -4 -5 -7 -8 -8 -12 -13 -13 -12 -16 -15 -10 -4 4 10 12 9 10 9 6 4 5 5 5 5 5 5 4 5 4 4 4 4 4 3 3 2 2 2 2 2 0 -0 -1 -1 -1 -1 -0 -0 -0 -1 -1 -2 -3 -4 -4 -5 -5 -5 -5 -5
Height
5850 5850 5850 5850 5849 5849 5849 5848 5848 5848 5847 5847 5846 5846 5846 5846 5845 5845 5845 5845 5845 5845 5844 5844 5844 5844 5844 5844 5843 5843 5843 5843 5843 5842 5842 5842 5842 5841 5841 5841 5841 5841 5840 5840 5840 5840 5839 5839 5839 5839 5839 5838 5838 5837 5837 5837 5836 5836 5836 5836 5835 5835 5835 5835 5835 5835 5834 5834 5834 5834 5833 5833 5833 5833 5833 5832 5832 5832 5831 5831 5831 5831 5831 5831 5830 5830 5830 5830 5830 5830 5830 5830 5830 5829 5829 5829 5829 5829 5829 5828 5828 5828 5828
5849 5849 5849 5848 5848 5848 5847 5847 5847 5846 5846 5846 5845 5845 5844 5844 5844 5844 5844 5843 5843 5843 5843 5843 5842 5842 5842 5842 5842 5842 5841 5841 5841 5841 5841 5841 5840 5840 5840 5840 5839 5839 5839 5839 5839 5838 5838 5838 5838 5837 5837 5837 5837 5836 5836 5836 5835 5835 5835 5834 5834 5834 5833 5833 5833 5833 5833 5833 5832 5832 5832 5832 5831 5831 5831 5831 5831 5830 5830 5830 5829 5829 5829 5829 5828 5828 5828 5828 5828 5828 5827 5827 5827 5827 5827 5827 5827 5827 5826 5826 5826 5826 5826
5848 5848 5847 5847 5847 5846 5846 5846 5846 5845 5845 5845 5844 5844 5843 5843 5843 5842 5842 5842 5842 5842 5841 5841 5841 5841 5841 5841 5841 5840 5840 5840 5840 5839 5839 5839 5839 5839 5838 5838 5838 5838 5838 5838 5837 5837 5837 5836 5836 5836 5836 5836 5835 5835 5835 5834 5834 5834 5833 5833 5833 5832 5832 5831 5831 5831 5831 5831 5831 5831 5831 5830 5830 5830 5829 5829 5829 5828 5828 5828 5828 5827 5827 5827 5826 5826 5826 5826 5826 5825 5825 5825 5825 5825 5825 5825 5825 5824 5824 5824 5824 5824 5824
5847 5846 5846 5846 5846 5845 5845 5845 5844 5844 5844 5843 5843 5843 5842 5842 5842 5841 5841 5841 5841 5841 5840 5840 5840 5840 5840 5839 5839 5839 5839 5839 5838 5838 5838 5838 5838 5837 5837 5837 5837 5837 5836 5836 5836 5836 5836 5835 5835 5835 5835 5834 5834 5834 5833 5833 5833 5832 5832 5831 5831 5831 5831 5830 5830 5830 5829 5829 5829 5829 5829 5828 5828 5828 5827 5827 5827 5826 5826 5826 5826 5825 5825 5825 5824 5824 5824 5823 5823 5823 5823 5823 5822 5822 5822 5822 5822 5822 5822 5821 5821 5821 5821
5845 5845 5845 5844 5844 5844 5843 5843 5843 5843 5843 5842 5842 5842 5841 5841 5841 5841 5841 5840 5840 5840 5840 5839 5839 5839 5839 5838 5838 5838 5838 5837 5837 5837 5837 5837 5836 5836 5836 5836 5836 5836 5835 5835 5835 5834 5834 5834 5833 5833 5833 5833 5832 5832 5832 5831 5831 5831 5830 5830 5830 5829 5829 5828 5828 5828 5827 5827 5827 5827 5826 5826 5826 5825 5825 5825 5824 5824 5824 5824 5823 5823 5823 5822 5822 5822 5821 5821 5821 5821 5820 5820 5820 5820 5820 5820 5819 5819 5819 5819 5819 5819 5819
5844 5844 5843 5843 5843 5842 5842 5842 5842 5842 5841 5841 5841 5841 5841 5841 5840 5840 5840 5840 5839 5839 5839 5838 5838 5838 5838 5837 5837 5837 5837 5836 5836 5836 5836 5836 5835 5835 5835 5835 5834 5834 5834 5833 5833 5832 5832 5832 5831 5831 5831 5831 5831 5830 5830 5830 5829 5829 5828 5828 5827 5827 5826 5826 5826 5825 5825 5825 5824 5824 5824 5824 5823 5823 5822 5822 5822 5821 5821 5821 5821 5820 5820 5820 5820 5819 5819 5819 5818 5818 5818 5817 5817 5817 5817 5817 5817 5816 5816 5816 5816 5816 5816
5842 5842 5842 5842 5841 5841 5841 5841 5841 5841 5841 5840 5840 5840 5840 5839 5839 5839 5839 5838 5838 5838 5838 5837 5837 5837 5837 5836 5836 5836 5836 5835 5835 5835 5834 5834 5834 5833 5833 5833 5832 5832 5831 5831 5831 5831 5830 5830 5829 5829 5829 5828 5828 5828 5827 5827 5827 5826 5826 5826 5825 5825 5824 5824 5823 5823 5822 5822 5822 5821 5821 5821 5821 5821 5820 5820 5819 5819 5819 5818 5818 5818 5817 5817 5817 5817 5816 5816 5816 5816 5815 5815 5815 5814 5814 5814 5814 5814 5813 5813 5813 5813 5813
5841 5841 5841 5840 5840 5840 5840 5840 5840 5839 5839 5839 5839 5839 5838 5838 5838 5837 5837 5837 5837 5836 5836 5836 5836 5836 5835 5835 5835 5834 5834 5834 5833 5833 5833 5832 5832 5831 5831 5831 5830 5830 5830 5829 5829 5828 5828 5827 5827 5827 5826 5826 5826 5826 5825 5825 5824 5824 5824 5823 5823 5822 5822 5821 5821 5820 5820 5820 5819 5819 5819 5819 5818 5818 5818 5817 5817 5816 5816 5816 5816 5815 5815 5815 5814 5814 5814 5813 5813 5813 5812 5812 5812 5811 5811 5811 5811 5811 5811 5811 5810 5810 5810
5840 5839 5839 5839 5839 5839 5838 5838 5838 5838 5838 5838 5837 5837 5837 5836 5836 5836 5836 5836 5835 5835 5835 5834 5834 5834 5833 5833 5833 5832 5832 5832 5831 5831 5831 5830 5830 5829 5829 5829 5828 5828 5827 5827 5827 5826 5826 5826 5825 5825 5824 5824 5823 5823 5823 5822 5822 5821 5821 5821 5820 5820 5820 5819 5819 5818 5818 5817 5817 5817 5816 5816 5816 5816 5815 5815 5815 5814 5814 5813 5813 5812 5812 5812 5811 5811 5811 5810 5810 5810 5810 5809 5809 5809 5808 5808 5808 5808 5807 5807 5807 5807 5807
5838 5838 5838 5838 5837 5837 5837 5837 5837 5836 5836 5836 5836 5836 5835 5835 5835 5834 5834 5834 5833 5833 5833 5832 5832 5832 5831 5831 5831 5831 5830 5830 5829 5829 5829 5828 5828 5827 5827 5827 5826 5826 5826 5825 5825 5824 5824 5823 5823 5822 5822 5821 5821 5821 5820 5820 5819 5819 5818 5818 5818 5817 5817 5817 5816 5816 5816 5815 5815 5815 5814 5814 5814 5813 5813 5812 5812 5811 5811 5811 5810 5810 5809 5809 5808 5808 5807 5807 5807 5807 5806 5806 5806 5806 5805 5805 5805 5805 5805 5805 5805 5804 5804
5837 5837 5837 5836 5836 5836 5836 5835 5835 5835 5835 5834 5834 5834 5833 5833 5833 5832 5832 5832 5831 5831 5831 5831 5830 5830 5830 5829 5829 5829 5828 5828 5827 5827 5827 5826 5826 5826 5825 5825 5824 5824 5824 5823 5823 5822 5822 5821 5821 5820 5820 5819 5818 5818 5818 5817 5817 5816 5816 5816 5815 5815 5815 5815 5814 5814 5813 5813 5812 5812 5812 5811 5811 5811 5810 5810 5809 5809 5808 5808 5807 5806 5806 5806 5805 5805 5804 5804 5804 5803 5803 5803 5803 5803 5802 5802 5802 5802 5802 5802 5801 5801 5801
5836 5836 5835 5835 5835 5834 5834 5834 5833 5833 5833 5832 5832 5832 5832 5831 5831 5831 5831 5830 5830 5830 5829 5829 5829 5828 5828 5827 5827 5827 5826 5826 5826 5825 5825 5825 5824 5824 5823 5823 5822 5822 5821 5821 5821 5820 5820 5819 5819 5818 5817 5817 5816 5816 5815 5815 5814 5814 5813 5813 5813 5813 5812 5812 5812 5811 5811 5810 5810 5809 5809 5808 5808 5807 5807 5807 5806 5806 5805 5805 5804 5803 5803 5802 5801 5801 5801 5800 5800 5800 5800 5800 5800 5800 5799 5799 5799 5799 5799 5799 5799 5798 5798
5834 5834 5834 5833 5833 5833 5832 5832 5832 5831 5831 5831 5831 5830 5830 5830 5829 5829 5829 5828 5828 5828 5827 5827 5827 5826 5826 5826 5825 5825 5825 5824 5824 5823 5823 5823 5822 5822 5821 5821 5821 5820 5820 5819 5819 5818 5818 5817 5816 5816 5815 5815 5814 5813 5813 5812 5812 5811 5811 5811 5810 5810 5810 5809 5809 5809 5808 5808 5807 5806 5806 5805 5805 5804 5804 5803 5803 5802 5802 5801 5801 5800 5800 5799 5798 5798 5797 5797 5797 5796 5796 5796 5796 5796 5796 5796 5796 5796 5796 5796 5796 5795 5795
5833 5833 5832 5832 5832 5831 5831 5831 5830 5830 5830 5829 5829 5829 5828 5828 5827 5827 5827 5826 5826 5826 5826 5825 5825 5825 5824 5824 5823 5823 5823 5822 5822 5821 5821 5821 5820 5820 5819 5819 5818 5818 5817 5817 5816 5816 5816 5815 5814 5814 5813 5812 5811 5811 5811 5810 5809 5809 5808 5808 5807 5807 5806 5806 5806 5806 5805 5805 5804 5804 5803 5802 5801 5801 5800 5800 5799 5799 5798 5798 5797 5797 5796 5796 5796 5795 5795 5794 5794 5793 5793 5793 5793 5793 5793 5793 5793 5793 5792 5792 5792 5792 5791
5832 5831 5831 5831 5831 5830 5830 5829 5829 5828 5828 5828 5827 5827 5827 5826 5826 5826 5825 5825 5825 5824 5824 5823 5823 5823 5822 5822 5821 5821 5821 5820 5820 5820 5819 5819 5818 5818 5817 5817 5816 5816 5815 5815 5814 5814 5813 5813 5812 5811 5811 5810 5809 5809 5808 5807 5807 5806 5806 5805 5804 5804 5803 5803 5803 5802 5802 5801 5801 5801 5800 5799 5799 5798 5797 5796 5796 5796 5795 5795 5794 5794 5794 5793 5793 5792 5792 5791 5791 5791 5791 5790 5790 5790 5790 5790 5790 5790 5789 5789 5789 5789 5789
5831 5831 5830 5830 5829 5829 5828 5828 5827 5827 5827 5826 5826 5826 5825 5825 5824 5824 5824 5823 5823 5822 5822 5822 5821 5821 5821 5820 5820 5819 5819 5818 5818 5817 5817 5816 5816 5816 5815 5815 5814 5813 5813 5812 5812 5811 5811 5810 5810 5809 5808 5807 5807 5806 5806 5805 5804 5803 5803 5802 5801 5801 5800 5800 5799 5799 5799 5798 5798 5797 5797 5796 5796 5795 5794 5794 5793 5793 5792 5792 5791 5791 5791 5791 5790 5790 5789 5789 5789 5788 5788 5788 5787 5787 5787 5787 5786 5786 5786 5786 5786 5786 5786
5830 5830 5829 5829 5828 5828 5827 5827 5826 5826 5826 5825 5825 5824 5824 5823 5823 5822 5822 5821 5821 5821 5820 5820 5820 5819 5819 5818 5817 5817 5816 5816 5816 5815 5815 5814 5814 5813 5813 5812 5812 5811 5811 5810 5810 5809 5809 5808 5807 5807 5806 5806 5805 5804 5803 5803 5802 5801 5800 5799 5799 5798 5797 5797 5796 5796 5795 5795 5794 5794 5793 5793 5792 5792 5791 5791 5791 5790 5790 5789 5789 5789 5788 5788 5787 5787 5787 5786 5786 5786 5786 5786 5785 5785 5785 5784 5784 5783 5783 5783 5783 5783 5783
5829 5829 5828 5828 5827 5827 5826 5826 5825 5825 5824 5824 5823 5823 5822 5822 5821 5821 5821 5820 5820 5819 5819 5818 5818 5817 5817 5816 5816 5815 5815 5814 5813 5813 5812 5812 5811 5811 5811 5810 5810 5809 5808 5808 5807 5807 5806 5806 5805 5805 5804 5803 5802 5802 5801 5800 5799 5798 5798 5797 5796 5795 5794 5794 5793 5792 5792 5791 5791 5791 5791 5790 5790 5789 5789 5789 5788 5788 5787 5787 5786 5786 5786 5786 5785 5785 5785 5784 5784 5784 5783 5783 5783 5782 5782 5782 5781 5781 5781 5780 5780 5780 5780
5828 5828 5827 5827 5826 5826 5825 5825 5824 5824 5823 5822 5822 5821 5821 5820 5820 5819 5819 5818 5818 5817 5817 5816 5816 5815 5815 5814 5814 5813 5812 5812 5811 5811 5810 5810 5809 5809 5808 5808 5807 5807 5806 5806 5805 5805 5804 5803 5803 5802 5801 5801 5800 5799 5799 5798 5797 5796 5795 5794 5793 5792 5792 5791 5790 5790 5789 5788 5788 5788 5788 5787 5787 5787 5786 5786 5786 5786 5785 5785 5784 5784 5783 5783 5783 5782 5782 5781 5781 5781 5781 5781 5780 5780 5780 5779 5779 5778 5778 5778 5777 5777 5777
5827 5826 5826 5825 5825 5824 5824 5823 5823 5822 5822 5821 5821 5820 5819 5819 5818 5818 5817 5817 5816 5816 5815 5815 5814 5813 5813 5812 5811 5811 5811 5810 5809 5809 5808 5807 5807 5806 5806 5806 5805 5804 5804 5803 5803 5802 5801 5801 5800 5799 5799 5798 5797 5796 5796 5795 5794 5793 5792 5791 5791 5790 5789 5788 5788 5787 5786 5786 5785 5785 5785 5785 5785 5784 5784 5784 5783 5783 5783 5782 5782 5781 5781 5781 5780 5780 5779 5779 5778 5778 5778 5778 5777 5777 5777 5777 5776 5776 5776 5775 5775 5774 5774
5825 5825 5824 5824 5823 5823 5822 5822 5821 5821 5820 5820 5819 5819 5818 5817 5817 5816 5816 5815 5815 5814 5813 5813 5812 5811 5811 5810 5810 5809 5808 5808 5807 5807 5806 5806 5805 5804 5804 5803 5803 5802 5801 5801 5800 5799 5798 5798 5797 5796 5796 5795 5795 5794 5793 5792 5791 5790 5790 5789 5788 5787 5787 5786 5785 5784 5784 5783 5783 5782 5782 5782 5782 5782 5781 5781 5781 5781 5780 5780 5779 5779 5778 5778 5777 5777 5776 5776 5776 5776 5775 5775 5774 5774 5774 5774 5773 5773 5773 5773 5772 5772 5771
5824 5823 5823 5822 5822 5821 5821 5820 5820 5819 5819 5818 5817 5817 5816 5816 5815 5815 5814 5813 5813 5812 5811 5811 5810 5810 5809 5808 5808 5807 5806 5806 5805 5805 5804 5803 5803 5802 5801 5801 5800 5800 5799 5798 5798 5797 5796 5795 5795 5794 5793 5792 5792 5791 5790 5789 5788 5788 5787 5786 5786 5785 5784 5784 5783 5782 5781 5781 5781 5780 5780 5780 5779 5779 5779 5779 5778 5778 5778 5777 5776 5776 5775 5775 5775 5774 5774 5773 5773 5772 5772 5771 5771 5771 5771 5771 5771 5770 5770 5770 5769 5769 5769
5822 5822 5822 5821 5821 5820 5819 5819 5818 5817 5817 5816 5816 5815 5814 5814 5813 5812 5812 5811 5811 5810 5809 5809 5808 5807 5807 5806 5806 5805 5804 5803 5803 5802 5801 5801 5800 5800 5799 5798 5798 5797 5796 5796 5795 5795 5794 5793 5792 5792 5791 5790 5789 5788 5788 5787 5786 5785 5785 5784 5783 5783 5782 5781 5781 5780 5779 5779 5778 5778 5777 5777 5777 5777 5776 5776 5776 5776 5775 5774 5774 5773 5773 5772 5771 5771 5771 5771 5770 5770 5769 5769 5769 5768 5767 5767 5767 5767 5766 5766 5766 5766 5766
5821 5821 5820 5820 5819 5819 5818 5817 5816 5816 5815 5814 5814 5813 5812 5812 5811 5810 5810 5809 5808 5808 5807 5806 5806 5805 5804 5804 5803 5802 5802 5801 5801 5800 5799 5799 5798 5797 5797 5796 5795 5795 5794 5793 5793 5792 5791 5791 5790 5790 5789 5788 5787 5786 5786 5785 5784 5783 5782 5782 5781 5781 5780 5779 5778 5778 5777 5776 5776 5776 5775 5775 5774 5774 5774 5773 5773 5773 5772 5771 5771 5770 5770 5769 5768 5768 5768 5767 5767 5766 5766 5766 5766 5765 5764 5765 5764 5763 5763 5763 5763 5762 5762
5820 5819 5819 5818 5817 5817 5816 5816 5815 5814 5813 5812 5812 5811 5811 5810 5809 5808 5808 5807 5806 5806 5805 5804 5803 5803 5802 5801 5801 5800 5800 5799 5798 5798 5797 5796 5796 5795 5794 5794 5793 5792 5792 5791 5790 5790 5789 5788 5788 5787 5786 5786 5785 5784 5784 5783 5782 5781 5781 5780 5779 5778 5778 5777 5776 5776 5775 5774 5773 5773 5772 5772 5772 5771 5771 5771 5770 5770 5769 5769 5768 5767 5767 5766 5765 5765 5765 5764 5764 5763 5763 5762 5762 5761 5761 5761 5761 5760 5760 5759 5759 5759 5758
5818 5818 5817 5816 5816 5815 5815 5814 5813 5812 5811 5811 5810 5809 5809 5808 5807 5806 5806 5805 5804 5804 5803 5802 5801 5801 5800 5799 5799 5798 5797 5796 5796 5795 5795 5794 5793 5793 5792 5791 5791 5790 5789 5789 5788 5787 5786 5786 5785 5785 5784 5783 5783 5782 5781 5781 5780 5779 5778 5778 5777 5776 5776 5775 5774 5773 5772 5772 5771 5770 5770 5769 5769 5768 5768 5768 5767 5767 5766 5766 5765 5764 5764 5763 5762 5762 5761 5761 5761 5760 5760 5759 5758 5757 5757 5757 5757 5757 5756 5756 5755 5755 5754
5817 5816 5816 5815 5814 5813 5813 5812 5811 5811 5810 5809 5808 5807 5807 5806 5806 5805 5804 5803 5802 5801 5801 5800 5799 5798 5798 5797 5796 5796 5795 5794 5794 5793 5792 5791 5791 5790 5790 5789 5788 5787 5787 5786 5786 5785 5784 5783 5783 5782 5781 5781 5780 5780 5779 5778 5778 5777 5776 5776 5775 5774 5773 5773 5772 5771 5770 5769 5769 5768 5767 5766 5766 5765 5765 5765 5764 5764 5763 5763 5762 5761 5761 5760 5760 5759 5758 5757 5757 5757 5756 5756 5755 5754 5754 5753 5753 5752 5752 5751 5751 5751 5750
5815 5815 5814 5813 5813 5812 5811 5810 5809 5809 5808 5807 5806 5806 5805 5804 5804 5803 5802 5801 5800 5800 5799 5798 5797 5796 5796 5795 5794 5793 5793 5792 5791 5791 5790 5789 5788 5788 5787 5786 5786 5785 5785 5784 5783 5782 5782 5781 5781 5780 5779 5779 5778 5777 5776 5776 5775 5775 5774 5773 5772 5772 5771 5770 5770 5769 5768 5767 5766 5765 5764 5764 5763 5762 5762 5761 5761 5761 5760 5759 5759 5759 5758 5758 5757 5756 5756 5754 5754 5754 5753 5752 5752 5751 5750 5750 5749 5749 5748 5747 5747 5747 5747
5813 5813 5812 5812 5811 5810 5809 5808 5808 5807 5806 5806 5805 5804 5803 5802 5802 5801 5800 5799 5798 5797 5796 5796 5795 5794 5793 5792 5792 5791 5790 5790 5789 5788 5787 5787 5786 5786 5785 5784 5783 5783 5782 5781 5781 5780 5780 5779 5778 5777 5777 5776 5776 5775 5774 5774 5773 5772 5771 5771 5770 5769 5768 5768 5767 5766 5766 5765 5764 5763 5762 5761 5760 5759 5759 5758 5758 5757 5757 5756 5756 5756 5755 5755 5754 5753 5752 5752 5751 5750 5750 5749 5748 5747 5747 5746 5746 5745 5745 5744 5743 5743 5743
5811 5811 5811 5810 5809 5808 5807 5807 5806 5805 5804 5804 5803 5802 5801 5801 5800 5799 5798 5797 5796 5796 5795 5794 5793 5792 5791 5790 5790 5789 5788 5787 5787 5786 5785 5785 5784 5783 5782 5782 5781 5781 5780 5779 5778 5778 5777 5776 5776 5775 5774 5774 5773 5772 5772 5771 5771 5770 5769 5768 5767 5767 5766 5765 5764 5764 5763 5762 5761 5760 5759 5758 5757 5756 5756 5755 5755 5754 5754 5753 5753 5753 5753 5751 5751 5750 5749 5749 5748 5747 5746 5745 5744 5744 5744 5743 5742 5741 5741 5740 5740 5739 5739
5810 5809 5808 5808 5807 5806 5806 5805 5804 5803 5802 5802 5801 5801 5800 5799 5798 5797 5796 5795 5794 5793 5792 5791 5791 5790 5789 5788 5787 5786 5786 5785 5785 5784 5783 5782 5781 5781 5780 5779 5779 5778 5777 5777 5776 5775 5775 5774 5773 5772 5772 5771 5770 5770 5769 5768 5768 5767 5766 5766 5765 5764 5763 5762 5762 5761 5760 5759 5758 5757 5756 5756 5754 5753 5753 5752 5751 5751 5750 5750 5749 5749 5749 5748 5747 5746 5746 5746 5745 5744 5742 5741 5741 5741 5740 5739 5738 5738 5737 5737 5736 5736 5735
5807 5807 5806 5806 5805 5804 5804 5803 5802 5801 5801 5800 5799 5799 5798 5797 5796 5795 5794 5793 5792 5791 5790 5789 5788 5788 5787 5786 5785 5785 5784 5783 5782 5782 5781 5780 5780 5779 5778 5777 5776 5776 5775 5774 5774 5773 5772 5771 5771 5770 5769 5768 5768 5767 5766 5766 5765 5765 5764 5763 5762 5761 5761 5760 5759 5758 5757 5756 5755 5755 5754 5753 5752 5751 5750 5749 5748 5747 5747 5746 5746 5746 5745 5744 5744 5743 5743 5742 5741 5741 5740 5739 5738 5736 5736 5735 5734 5734 5733 5733 5732 5732 5732
5806 5805 5804 5804 5803 5802 5801 5801 5800 5799 5799 5798 5797 5796 5796 5795 5794 5793 5792 5791 5790 5789 5788 5787 5786 5785 5785 5784 5783 5782 5782 5781 5780 5780 5779 5778 5777 5776 5776 5775 5774 5773 5773 5772 5771 5771 5770 5769 5768 5767 5767 5766 5765 5765 5764 5763 5762 5762 5761 5761 5760 5759 5758 5757 5756 5755 5754 5753 5753 5752 5751 5750 5749 5748 5747 5746 5745 5744 5744 5743 5742 5741 5741 5741 5740 5739 5739 5738 5738 5737 5736 5735 5735 5734 5732 5731 5730 5729 5729 5729 5729 5728 5728
5804 5803 5802 5802 5801 5800 5800 5799 5798 5797 5797 5796 5795 5795 5794 5793 5792 5791 5790 5789 5788 5787 5786 5785 5784 5783 5782 5781 5781 5780 5779 5779 5778 5777 5777 5776 5775 5774 5773 5773 5772 5771 5770 5770 5769 5768 5767 5766 5766 5765 5764 5763 5763 5762 5761 5761 5760 5759 5758 5758 5757 5756 5755 5754 5753 5752 5751 5751 5750 5749 5748 5747 5746 5745 5744 5743 5742 5741 5740 5740 5739 5738 5737 5736 5736 5735 5735 5734 5733 5733 5731 5731 5730 5729 5729 5727 5726 5725 5725 5725 5725 5725 5724
5801 5801 5801 5800 5799 5798 5798 5797 5796 5795 5795 5794 5793 5792 5791 5791 5790 5789 5788 5787 5786 5785 5784 5783 5782 5781 5780 5779 5779 5778 5777 5776 5776 5775 5774 5774 5773 5772 5771 5771 5770 5769 5768 5767 5766 5766 5765 5764 5763 5762 5761 5761 5760 5759 5759 5758 5757 5756 5756 5755 5754 5753 5752 5751 5750 5750 5749 5748 5747 5746 5745 5744 5743 5742 5741 5740 5739 5738 5737 5736 5736 5734 5733 5733 5732 5731 5730 5730 5729 5727 5726 5726 5726 5725 5725 5723 5722 5722 5721 5721 5720 5720 5719
5800 5799 5799 5798 5797 5797 5796 5795 5794 5793 5793 5792 5791 5790 5789 5788 5787 5786 5786 5785 5784 5783 5782 5781 5780 5779 5778 5777 5776 5776 5775 5774 5773 5773 5772 5771 5771 5770 5769 5768 5767 5767 5766 5765 5764 5763 5762 5761 5760 5760 5759 5758 5757 5756 5756 5755 5754 5753 5752 5751 5751 5750 5749 5748 5747 5746 5746 5745 5744 5743 5742 5741 5740 5739 5738 5736 5736 5734 5733 5732 5732 5731 5730 5729 5728 5727 5726 5726 5725 5723 5722 5722 5721 5720 5719 5719 5718 5718 5717 5716 5715 5714 5713
5798 5797 5797 5796 5796 5795 5794 5793 5792 5791 5791 5790 5789 5788 5787 5786 5785 5784 5783 5782 5781 5781 5780 5779 5778 5777 5776 5775 5774 5773 5773 5772 5771 5771 5770 5769 5768 5767 5767 5766 5765 5764 5763 5762 5761 5761 5760 5758 5757 5757 5756 5755 5755 5754 5753 5752 5751 5750 5749 5748 5747 5746 5745 5745 5744 5743 5742 5741 5741 5739 5738 5737 5736 5735 5734 5733 5732 5731 5731 5730 5728 5727 5727 5726 5724 5723 5722 5723 5721 5720 5719 5717 5716 5714 5714 5714 5713 5713 5712 5711 5710 5710 5709
5796 5796 5795 5794 5794 5793 5792 5791 5790 5790 5789 5788 5787 5786 5785 5784 5783 5782 5781 5780 5779 5778 5777 5776 5776 5775 5774 5773 5772 5771 5771 5770 5769 5769 5768 5767 5766 5765 5764 5763 5763 5762 5761 5760 5759 5758 5757 5756 5755 5754 5753 5752 5752 5751 5750 5749 5748 5747 5746 5745 5744 5743 5742 5741 5741 5740 5739 5738 5737 5736 5735 5734 5733 5732 5731 5730 5729 5728 5727 5726 5725 5724 5723 5722 5721 5720 5719 5718 5718 5716 5715 5712 5711 5710 5709 5709 5708 5708 5706 5706 5706 5706 5705
5794 5794 5793 5792 5792 5791 5790 5789 5788 5787 5786 5786 5785 5784 5783 5781 5781 5780 5778 5777 5777 5776 5775 5774 5773 5772 5771 5770 5770 5769 5768 5768 5767 5766 5766 5765 5764 5763 5762 5761 5760 5759 5758 5757 5756 5755 5754 5753 5752 5751 5751 5750 5749 5748 5747 5746 5745 5744 5742 5741 5741 5740 5739 5738 5737 5736 5735 5734 5733 5732 5731 5730 5729 5728 5726 5726 5725 5724 5723 5721 5721 5720 5719 5718 5717 5716 5715 5714 5713 5712 5711 5708 5706 5705 5705 5704 5704 5703 5701 5701 5701 5700 5699
5793 5792 5791 5791 5790 5789 5788 5787 5786 5785 5784 5783 5782 5781 5780 5779 5778 5777 5776 5775 5774 5773 5772 5772 5771 5770 5769 5768 5767 5766 5766 5765 5765 5764 5763 5762 5761 5761 5760 5758 5757 5756 5756 5755 5753 5752 5751 5750 5749 5749 5748 5747 5746 5745 5744 5742 5741 5741 5739 5738 5737 5736 5735 5734 5733 5732 5731 5730 5729 5728 5727 5726 5725 5724 5723 5721 5720 5719 5718 5717 5716 5715 5714 5713 5712 5711 5711 5710 5709 5708 5707 5705 5702 5701 5701 5700 5698 5697 5696 5695 5695 5694 5693
5791 5790 5789 5788 5788 5787 5786 5785 5784 5783 5782 5781 5780 5778 5777 5776 5776 5774 5773 5772 5771 5771 5770 5769 5768 5768 5767 5766 5765 5765 5764 5763 5762 5761 5761 5760 5759 5758 5757 5756 5755 5754 5753 5752 5751 5750 5748 5748 5747 5746 5745 5744 5743 5742 5741 5739 5738 5737 5736 5735 5734 5733 5731 5731 5729 5728 5727 5726 5725 5724 5723 5722 5721 5719 5718 5717 5716 5715 5714 5713 5712 5711 5710 5708 5707 5706 5706 5705 5704 5703 5702 5701 5699 5697 5696 5695 5694 5692 5691 5690 5689 5688 5687
5789 5788 5787 5786 5786 5785 5783 5782 5781 5780 5779 5778 5777 5776 5775 5774 5773 5771 5771 5770 5769 5768 5767 5766 5766 5765 5764 5763 5763 5762 5761 5761 5760 5759 5758 5757 5756 5755 5754 5753 5752 5751 5750 5749 5748 5746 5746 5745 5744 5743 5742 5741 5740 5739 5737 5736 5735 5734 5733 5731 5730 5729 5728 5727 5726 5724 5723 5722 5721 5720 5719 5718 5716 5715 5714 5713 5711 5710 5709 5708 5707 5706 5705 5703 5702 5701 5700 5699 5698 5697 5696 5696 5695 5693 5692 5691 5690 5689 5687 5686 5684 5683 5682
5787 5786 5785 5784 5783 5782 5781 5780 5779 5777 5776 5775 5774 5773 5772 5771 5770 5769 5768 5767 5766 5765 5764 5763 5762 5762 5761 5761 5760 5760 5759 5758 5757 5756 5756 5755 5754 5752 5751 5750 5749 5748 5747 5746 5745 5744 5743 5742 5741 5740 5739 5738 5737 5736 5734 5733 5732 5731 5729 5728 5727 5726 5724 5723 5721 5720 5719 5718 5717 5716 5714 5713 5712 5711 5709 5708 5707 5706 5704 5703 5702 5701 5700 5698 5697 5696 5695 5694 5693 5692 5691 5690 5689 5688 5687 5686 5686 5685 5683 5682 5680 5679 5677
5785 5784 5783 5782 5781 5780 5778 5777 5776 5775 5774 5772 5771 5770 5769 5768 5767 5766 5765 5764 5764 5763 5762 5761 5760 5759 5758 5758 5757 5757 5756 5756 5755 5754 5753 5752 5751 5750 5749 5747 5746 5745 5744 5743 5741 5741 5740 5739 5738 5737 5736 5735 5733 5732 5731 5730 5728 5727 5726 5724 5723 5721 5720 5719 5717 5716 5715 5714 5712 5711 5710 5708 5707 5706 5705 5703 5702 5701 5699 5698 5697 5696 5694 5693 5692 5691 5690 5688 5687 5686 5685 5684 5683 5682 5681 5680 5679 5679 5678 5677 5676 5674 5672
5782 5781 5781 5780 5778 5777 5776 5775 5773 5772 5771 5770 5768 5767 5766 5766 5765 5764 5763 5762 5761 5760 5759 5758 5757 5756 5755 5755 5754 5754 5753 5753 5752 5751 5750 5749 5748 5747 5746 5745 5744 5742 5741 5740 5738 5737 5736 5736 5735 5734 5732 5731 5730 5729 5727 5726 5725 5723 5722 5720 5719 5717 5716 5715 5713 5712 5711 5709 5708 5706 5705 5704 5702 5701 5700 5698 5697 5696 5694 5693 5691 5690 5689 5687 5686 5685 5684 5682 5681 5680 5679 5678 5676 5675 5674 5673 5672 5672 5671 5671 5670 5669 5667
5780 5779 5778 5777 5776 5774 5773 5772 5770 5769 5768 5767 5766 5765 5764 5763 5762 5761 5760 5759 5758 5758 5757 5756 5755 5753 5752 5751 5751 5750 5750 5749 5748 5748 5747 5746 5745 5744 5743 5742 5741 5739 5738 5737 5735 5734 5733 5732 5731 5730 5729 5727 5726 5725 5724 5722 5721 5719 5718 5716 5715 5713 5712 5710 5709 5707 5706 5705 5703 5701 5700 5699 5697 5696 5695 5693 5692 5691 5689 5687 5686 5684 5683 5681 5680 5679 5678 5676 5675 5674 5672 5671 5670 5669 5668 5666 5666 5665 5664 5664 5663 5662 5661
5778 5777 5776 5774 5773 5772 5770 5769 5768 5766 5765 5764 5763 5762 5761 5760 5760 5759 5758 5757 5756 5755 5754 5753 5752 5751 5750 5748 5747 5747 5746 5746 5745 5745 5744 5743 5742 5741 5740 5739 5737 5736 5735 5733 5732 5731 5730 5729 5727 5726 5725 5724 5722 5721 5720 5718 5717 5716 5714 5712 5711 5709 5708 5706 5705 5703 5701 5700 5698 5697 5695 5694 5692 5691 5689 5688 5686 5685 5683 5682 5681 5679 5677 5676 5674 5673 5671 5670 5669 5667 5666 5664 5663 5662 5661 5660 5659 5658 5657 5656 5656 5655 5655
5775 5774 5773 5771 5770 5769 5768 5766 5765 5764 5763 5761 5761 5760 5759 5758 5757 5756 5756 5755 5754 5753 5752 5751 5750 5749 5747 5746 5744 5743 5743 5742 5741 5741 5741 5740 5739 5738 5736 5735 5734 5733 5731 5730 5729 5727 5726 5725 5724 5723 5721 5720 5718 5717 5716 5714 5713 5711 5710 5708 5707 5705 5703 5702 5700 5699 5697 5695 5694 5692 5690 5689 5687 5686 5684 5682 5681 5679 5677 5676 5674 5673 5671 5669 5668 5666 5665 5663 5662 5660 5659 5657 5656 5655 5654 5653 5652 5651 5650 5650 5649 5648 5647
5773 5771 5770 5769 5768 5766 5765 5764 5762 5761 5760 5759 5758 5757 5756 5755 5754 5754 5753 5752 5751 5750 5749 5748 5747 5746 5745 5743 5742 5741 5739 5739 5738 5737 5736 5736 5735 5734 5733 5732 5731 5729 5728 5727 5725 5724 5723 5722 5720 5719 5717 5716 5715 5713 5711 5710 5708 5707 5706 5704 5702 5701 5699 5697 5696 5694 5692 5690 5688 5686 5685 5683 5681 5680 5678 5676 5674 5673 5671 5669 5668 5666 5665 5663 5661 5660 5658 5657 5655 5654 5652 5651 5650 5648 5647 5646 5645 5644 5644 5643 5642 5641 5640
5770 5769 5767 5766 5765 5764 5762 5761 5760 5759 5757 5756 5755 5754 5753 5752 5751 5751 5750 5749 5748 5747 5746 5745 5744 5743 5741 5740 5739 5737 5736 5735 5734 5734 5733 5732 5731 5731 5730 5729 5728 5726 5725 5724 5722 5721 5719 5718 5717 5715 5714 5712 5710 5709 5707 5706 5704 5702 5701 5699 5698 5696 5694 5693 5691 5689 5687 5685 5683 5681 5679 5677 5676 5674 5672 5670 5668 5667 5665 5663 5662 5660 5659 5657 5656 5654 5652 5651 5649 5647 5646 5644 5643 5641 5640 5639 5639 5638 5637 5636 5635 5634 5632
5767 5766 5765 5763 5762 5761 5760 5758 5757 5756 5755 5754 5752 5751 5751 5750 5749 5748 5747 5746 5745 5744 5743 5742 5741 5739 5738 5736 5735 5734 5732 5731 5731 5730 5728 5727 5727 5726 5725 5725 5725 5724 5722 5721 5719 5717 5716 5715 5713 5712 5710 5708 5706 5705 5703 5701 5700 5698 5696 5695 5693 5691 5690 5688 5686 5685 5683 5681 5679 5677 5675 5673 5671 5669 5667 5666 5664 5662 5660 5658 5656 5655 5653 5651 5650 5648 5647 5645 5643 5642 5640 5638 5636 5635 5633 5632 5632 5632 5631 5630 5629 5627 5626
5764 5763 5761 5760 5759 5758 5756 5755 5754 5753 5752 5751 5750 5749 5748 5747 5746 5745 5744 5742 5741 5741 5740 5739 5737 5736 5735 5733 5731 5730 5728 5727 5726 5726 5724 5723 5722 5722 5721 5720 5720 5720 5719 5718 5716 5714 5713 5711 5710 5708 5706 5704 5703 5701 5699 5697 5696 5694 5692 5691 5689 5687 5686 5684 5682 5680 5679 5677 5675 5673 5671 5669 5667 5665 5663 5661 5659 5657 5655 5653 5651 5650 5648 5646 5644 5643 5641 5639 5637 5636 5634 5632 5630 5628 5626 5626 5625 5625 5624 5623 5621 5620 5618
5761 5760 5758 5757 5756 5755 5754 5752 5751 5750 5749 5748 5747 5746 5745 5744 5743 5741 5741 5739 5738 5737 5736 5735 5734 5733 5731 5730 5728 5726 5725 5723 5722 5721 5721 5719 5718 5717 5716 5716 5714 5713 5714 5713 5712 5711 5710 5708 5706 5705 5703 5701 5699 5697 5696 5694 5692 5690 5688 5686 5685 5683 5681 5679 5677 5676 5674 5672 5670 5668 5666 5665 5662 5661 5659 5656 5655 5652 5650 5648 5646 5644 5642 5640 5638 5637 5635 5633 5631 5629 5627 5625 5623 5621 5619 5618 5618 5618 5617 5616 5614 5613 5611
5758 5757 5756 5754 5753 5752 5751 5750 5749 5747 5746 5746 5744 5743 5742 5741 5740 5738 5737 5736 5735 5734 5732 5731 5731 5730 5728 5726 5725 5723 5721 5720 5718 5717 5716 5715 5713 5712 5711 5711 5710 5708 5707 5706 5706 5705 5705 5705 5703 5701 5700 5698 5696 5694 5692 5690 5688 5686 5684 5682 5680 5678 5676 5675 5673 5671 5669 5667 5665 5663 5661 5659 5657 5656 5653 5651 5649 5647 5645 5643 5641 5638 5636 5634 5632 5630 5628 5626 5625 5622 5621 5618 5616 5614 5612 5611 5610 5610 5609 5608 5606 5605 5604
5755 5754 5752 5751 5750 5749 5748 5747 5746 5745 5744 5742 5741 5740 5739 5738 5736 5735 5734 5733 5731 5730 5729 5728 5727 5726 5725 5723 5722 5721 5719 5716 5715 5713 5711 5710 5709 5707 5706 5705 5705 5704 5702 5701 5700 5698 5698 5698 5698 5696 5695 5694 5691 5689 5687 5686 5683 5681 5679 5677 5675 5673 5671 5670 5668 5666 5664 5662 5660 5658 5656 5654 5652 5650 5648 5646 5643 5641 5639 5637 5635 5632 5630 5628 5626 5624 5622 5620 5618 5616 5613 5611 5609 5606 5604 5603 5602 5602 5601 5600 5598 5597 5596
5752 5751 5750 5748 5747 5746 5745 5744 5743 5742 5741 5740 5738 5737 5736 5735 5733 5732 5731 5730 5728 5727 5726 5725 5723 5722 5721 5720 5719 5717 5716 5714 5712 5710 5708 5706 5704 5703 5701 5699 5698 5697 5696 5695 5694 5693 5691 5691 5690 5690 5690 5689 5686 5683 5682 5681 5679 5676 5674 5672 5670 5668 5666 5664 5662 5661 5658 5656 5654 5652 5650 5648 5646 5644 5642 5640 5637 5635 5633 5631 5628 5626 5623 5621 5619 5617 5615 5612 5610 5608 5606 5603 5601 5598 5596 5594 5594 5593 5592 5591 5590 5588 5587
5749 5748 5747 5746 5745 5743 5742 5741 5740 5739 5738 5736 5736 5734 5733 5731 5730 5729 5727 5726 5725 5724 5722 5721 5720 5719 5718 5716 5715 5714 5712 5710 5708 5706 5705 5702 5700 5698 5696 5694 5692 5691 5689 5687 5687 5686 5685 5684 5683 5682 5682 5684 5681 5678 5675 5674 5673 5671 5668 5666 5664 5662 5661 5659 5657 5655 5653 5651 5649 5646 5644 5642 5640 5638 5636 5633 5631 5629 5626 5624 5621 5619 5616 5614 5612 5610 5607 5605 5603 5600 5598 5596 5593 5590 5588 5586 5585 5584 5583 5582 5580 5579 5577
5746 5745 5744 5743 5742 5741 5740 5738 5737 5736 5735 5734 5732 5731 5730 5728 5727 5726 5724 5723 5722 5720 5719 5718 5716 5715 5714 5712 5711 5710 5708 5706 5705 5703 5701 5699 5696 5694 5692 5690 5688 5686 5684 5682 5680 5679 5677 5676 5676 5675 5674 5675 5676 5674 5670 5667 5666 5665 5663 5660 5658 5656 5655 5653 5651 5649 5647 5645 5643 5641 5638 5636 5634 5631 5629 5627 5625 5622 5620 5617 5614 5612 5609 5607 5604 5602 5600 5597 5595 5592 5590 5587 5585 5582 5579 5577 5576 5575 5574 5572 5571 5569 5568
5743 5742 5741 5740 5739 5738 5737 5736 5734 5733 5732 5731 5729 5728 5726 5725 5724 5722 5721 5720 5718 5717 5716 5714 5713 5711 5710 5709 5707 5706 5704 5702 5701 5700 5698 5696 5693 5691 5689 5686 5684 5682 5680 5677 5675 5673 5671 5669 5667 5666 5666 5666 5667 5668 5667 5663 5659 5657 5656 5654 5652 5650 5648 5646 5645 5643 5641 5639 5637 5635 5632 5630 5628 5625 5623 5620 5618 5616 5613 5610 5607 5605 5602 5599 5597 5594 5592 5590 5587 5585 5582 5579 5576 5574 5571 5569 5567 5566 5564 5563 5561 5560 5558
5741 5740 5738 5737 5736 5735 5734 5733 5731 5730 5729 5728 5726 5725 5724 5722 5721 5719 5718 5716 5715 5714 5712 5711 5709 5708 5706 5705 5704 5702 5701 5699 5697 5696 5694 5692 5689 5687 5686 5683 5681 5678 5676 5673 5671 5668 5665 5663 5660 5659 5657 5656 5656 5658 5659 5658 5655 5651 5649 5647 5645 5644 5642 5640 5638 5636 5634 5632 5630 5628 5626 5623 5621 5619 5616 5613 5611 5608 5606 5603 5600 5597 5595 5592 5589 5586 5584 5581 5579 5576 5574 5571 5568 5565 5562 5560 5558 5556 5554 5553 5551 5549 5547
5738 5737 5736 5735 5733 5732 5731 5730 5729 5727 5726 5725 5723 5722 5721 5719 5718 5716 5715 5713 5712 5710 5709 5707 5706 5704 5702 5701 5700 5698 5696 5695 5692 5691 5689 5687 5685 5683 5681 5679 5676 5674 5672 5669 5667 5664 5661 5658 5656 5653 5651 5649 5648 5648 5649 5650 5648 5646 5643 5641 5639 5636 5635 5633 5631 5629 5627 5625 5623 5621 5619 5616 5614 5611 5609 5606 5603 5601 5598 5595 5592 5590 5586 5584 5581 5578 5575 5573 5570 5567 5565 5562 5559 5556 5553 5551 5548 5546 5544 5542 5540 5538 5537